TimeEST,TemperatureF,Dew PointF,Humidity,Sea Level PressureIn,VisibilityMPH,Wind Direction,Wind SpeedMPH,Gust SpeedMPH,PrecipitationIn,Events,Conditions,WindDirDegrees,DateUTC
12:15 AM,38.3,36.9,95,30.16,7.0,NNE,3.5,-,N/A,Rain,Light Rain,30,2013-02-08 05:15:00
12:35 AM,38.3,37.0,95,30.14,5.0,NNE,4.6,-,N/A,Rain,Light Rain,20,2013-02-08 05:35:00
12:55 AM,38.3,37.4,97,30.14,4.0,NE,3.5,-,N/A,Rain,Rain,40,2013-02-08 05:55:00
1:15 AM,38.3,37.4,97,30.13,3.0,Calm,Calm,-,N/A,Rain,Rain,0,2013-02-08 06:15:00
1:35 AM,38.3,37.6,97,30.12,3.0,NNE,3.5,-,N/A,Rain,Rain,30,2013-02-08 06:35:00
1:55 AM,38.3,37.8,98,30.09,4.0,NNE,4.6,-,N/A,Rain,Rain,20,2013-02-08 06:55:00
2:15 AM,38.3,37.8,98,30.09,3.0,North,3.5,-,N/A,Rain,Rain,10,2013-02-08 07:15:00
2:35 AM,38.3,37.8,98,30.08,3.0,North,3.5,-,N/A,Rain,Rain,10,2013-02-08 07:35:00
2:55 AM,38.3,37.9,99,30.06,2.5,North,3.5,-,N/A,Rain,Rain,360,2013-02-08 07:55:00
3:15 AM,38.5,38.1,99,30.04,3.0,North,4.6,-,N/A,Rain,Rain,360,2013-02-08 08:15:00
3:35 AM,38.5,38.3,99,30.02,3.0,North,5.8,-,N/A,Rain,Rain,350,2013-02-08 08:35:00
3:55 AM,38.7,38.3,99,30.01,5.0,North,5.8,-,N/A,Rain,Rain,360,2013-02-08 08:55:00
4:35 AM,38.3,37.8,98,29.98,4.0,North,5.8,-,N/A,Rain,Heavy Rain,350,2013-02-08 09:35:00
4:55 AM,37.9,37.6,99,29.96,4.0,NNW,8.1,-,N/A,Rain,Rain,340,2013-02-08 09:55:00
5:15 AM,37.8,37.4,99,29.96,5.0,NNW,6.9,-,N/A,Rain,Rain,340,2013-02-08 10:15:00
5:35 AM,37.8,37.4,99,29.94,5.0,NNW,5.8,-,N/A,Rain,Rain,340,2013-02-08 10:35:00
6:15 AM,37.4,37.0,99,29.93,5.0,NNW,6.9,-,N/A,Rain,Rain,340,2013-02-08 11:15:00
6:35 AM,37.4,36.9,98,29.91,5.0,NNW,6.9,-,N/A,Rain,Rain,330,2013-02-08 11:35:00
6:55 AM,37.0,36.7,99,29.90,5.0,NNW,6.9,-,N/A,Rain,Rain,330,2013-02-08 11:55:00
7:15 AM,37.2,36.9,99,29.89,5.0,NNW,6.9,-,N/A,Rain,Rain,330,2013-02-08 12:15:00
7:35 AM,37.4,37.0,99,29.88,4.0,NNW,9.2,-,N/A,Rain,Rain,330,2013-02-08 12:35:00
7:55 AM,37.4,37.0,99,29.86,4.0,North,9.2,-,N/A,Rain,Rain,350,2013-02-08 12:55:00
8:15 AM,37.4,36.9,98,29.85,4.0,North,10.4,-,N/A,Rain,Rain,350,2013-02-08 13:15:00
8:35 AM,37.4,36.9,98,29.84,5.0,NNW,11.5,16.1,N/A,Rain,Light Rain,330,2013-02-08 13:35:00
8:55 AM,37.4,36.9,98,29.83,7.0,NNW,8.1,-,N/A,Rain,Light Rain,330,2013-02-08 13:55:00
9:15 AM,37.4,37.0,99,29.81,7.0,NW,11.5,17.3,N/A,Rain,Light Rain,320,2013-02-08 14:15:00
9:35 AM,37.8,37.4,99,29.80,10.0,NNW,8.1,16.1,N/A,Rain,Light Rain,330,2013-02-08 14:35:00
9:55 AM,38.3,37.8,98,29.80,10.0,NW,8.1,16.1,N/A,Rain,Light Rain,320,2013-02-08 14:55:00
10:15 AM,38.8,38.3,98,29.80,10.0,NNW,9.2,-,N/A,,Light Drizzle,330,2013-02-08 15:15:00
10:35 AM,39.2,38.5,97,29.79,10.0,NW,9.2,-,N/A,,Overcast,310,2013-02-08 15:35:00
10:55 AM,39.6,38.8,97,29.78,7.0,NW,5.8,-,N/A,,Overcast,320,2013-02-08 15:55:00
11:15 AM,39.9,39.2,97,29.78,7.0,NW,10.4,16.1,N/A,,Overcast,310,2013-02-08 16:15:00
11:35 AM,40.6,39.7,97,29.78,7.0,NW,8.1,-,N/A,,Overcast,310,2013-02-08 16:35:00
11:55 AM,41.5,40.3,95,29.77,7.0,NNW,8.1,-,N/A,,Overcast,330,2013-02-08 16:55:00
12:15 PM,43.0,41.5,95,29.76,5.0,NW,8.1,-,N/A,,Overcast,320,2013-02-08 17:15:00
12:35 PM,43.2,41.5,94,29.75,5.0,NW,9.2,-,N/A,,Overcast,320,2013-02-08 17:35:00
12:55 PM,43.5,41.7,93,29.75,7.0,WNW,6.9,-,N/A,,Overcast,300,2013-02-08 17:55:00
1:15 PM,43.0,41.0,93,29.74,10.0,WNW,6.9,-,N/A,,Overcast,300,2013-02-08 18:15:00
1:35 PM,43.7,41.2,91,29.73,10.0,WNW,6.9,16.1,N/A,,Overcast,300,2013-02-08 18:35:00
1:55 PM,43.7,40.8,90,29.73,10.0,WNW,10.4,-,N/A,,Overcast,300,2013-02-08 18:55:00
2:15 PM,43.7,40.6,89,29.73,10.0,WNW,8.1,-,N/A,,Overcast,290,2013-02-08 19:15:00
2:35 PM,43.9,40.6,88,29.72,10.0,WNW,9.2,16.1,N/A,,Overcast,300,2013-02-08 19:35:00
2:55 PM,43.7,40.1,87,29.73,10.0,WNW,10.4,16.1,N/A,,Overcast,290,2013-02-08 19:55:00
3:15 PM,43.9,40.5,88,29.73,10.0,West,8.1,-,N/A,,Overcast,280,2013-02-08 20:15:00
3:35 PM,43.9,40.5,88,29.73,10.0,WNW,9.2,-,N/A,,Overcast,290,2013-02-08 20:35:00
3:55 PM,44.4,40.8,87,29.74,10.0,West,9.2,-,N/A,,Overcast,280,2013-02-08 20:55:00
4:15 PM,44.6,40.5,85,29.75,10.0,West,11.5,18.4,N/A,,Overcast,280,2013-02-08 21:15:00
4:35 PM,44.1,40.1,86,29.75,10.0,WNW,6.9,18.4,N/A,,Overcast,290,2013-02-08 21:35:00
4:55 PM,43.7,39.6,85,29.76,10.0,WNW,11.5,18.4,N/A,,Overcast,290,2013-02-08 21:55:00
5:15 PM,43.7,39.6,85,29.77,10.0,West,9.2,16.1,N/A,,Overcast,280,2013-02-08 22:15:00
5:35 PM,43.7,39.2,84,29.78,10.0,WNW,6.9,-,N/A,,Overcast,290,2013-02-08 22:35:00
5:55 PM,43.7,39.2,84,29.78,10.0,WNW,6.9,-,N/A,,Overcast,290,2013-02-08 22:55:00
6:35 PM,42.6,38.5,85,29.80,10.0,West,5.8,-,N/A,,Scattered Clouds,270,2013-02-08 23:35:00
6:55 PM,42.1,38.3,86,29.80,10.0,Calm,Calm,-,N/A,,Mostly Cloudy,0,2013-02-08 23:55:00
7:15 PM,41.4,38.3,89,29.81,10.0,West,4.6,-,N/A,,Mostly Cloudy,280,2013-02-09 00:15:00
7:35 PM,41.0,37.8,88,29.81,10.0,West,6.9,-,N/A,,Scattered Clouds,270,2013-02-09 00:35:00
7:55 PM,41.4,37.4,86,29.81,10.0,West,6.9,-,N/A,,Scattered Clouds,280,2013-02-09 00:55:00
8:15 PM,41.5,37.0,84,29.82,10.0,West,4.6,-,N/A,,Mostly Cloudy,270,2013-02-09 01:15:00
8:35 PM,42.1,35.8,78,29.83,10.0,West,9.2,-,N/A,,Overcast,280,2013-02-09 01:35:00
8:55 PM,43.3,33.8,69,29.83,10.0,West,12.7,16.1,N/A,,Overcast,270,2013-02-09 01:55:00
9:15 PM,43.5,30.9,61,29.85,10.0,WNW,11.5,23.0,N/A,,Mostly Cloudy,300,2013-02-09 02:15:00
9:35 PM,42.8,27.3,54,29.86,10.0,WNW,11.5,21.9,N/A,,Clear,290,2013-02-09 02:35:00
9:55 PM,42.1,26.1,53,29.87,10.0,West,8.1,16.1,N/A,,Clear,280,2013-02-09 02:55:00
10:15 PM,41.9,26.1,53,29.87,10.0,WNW,13.8,23.0,N/A,,Scattered Clouds,290,2013-02-09 03:15:00
10:35 PM,41.0,25.9,55,29.87,10.0,West,13.8,19.6,N/A,,Scattered Clouds,280,2013-02-09 03:35:00
10:55 PM,41.2,25.2,53,29.89,10.0,West,10.4,20.7,N/A,,Scattered Clouds,280,2013-02-09 03:55:00
11:15 PM,40.3,24.3,53,29.90,10.0,NW,9.2,19.6,N/A,,Scattered Clouds,320,2013-02-09 04:15:00
11:35 PM,38.7,23.0,53,29.91,10.0,NW,11.5,21.9,N/A,,Clear,310,2013-02-09 04:35:00
11:55 PM,38.3,22.8,54,29.93,10.0,NW,13.8,20.7,N/A,,Scattered Clouds,310,2013-02-09 04:55:00